| time (UTC) | temp F | wind direction | speed MPH | gust MPH | rain 1hr in | rain 24hr in | rain mn in | humidity % | barometer mb |
| 20260506171510 | 75 | 207 | 5.0 | 9.0 | 0.00 | 0.00 | 0.00 | 44 | 1014.7 |
| 20260506170108 | 75 | 256 | 5.0 | 11.0 | 0.00 | 0.00 | 0.00 | 43 | 1014.5 |
| 20260506164557 | 74 | 176 | 6.0 | 10.0 | 0.00 | 0.00 | 0.00 | 28 | 1014.9 |
| 20260506163054 | 73 | 209 | 3.0 | 11.0 | 0.00 | 0.00 | 0.00 | 20 | 1015.1 |
| 20260506161551 | 72 | 185 | 5.0 | 11.0 | 0.00 | 0.00 | 0.00 | 11 | 1015.1 |
| 20260506160045 | 71 | 261 | 3.0 | 10.0 | 0.00 | 0.00 | 0.00 | 13 | 1015.5 |
| 20260506154536 | 71 | 211 | 5.0 | 11.0 | 0.00 | 0.00 | 0.00 | 3 | 1015.2 |
| 20260506153031 | 70 | 242 | 2.0 | 8.0 | 0.00 | 0.00 | 0.00 | 1 | 1015.1 |
| 20260506151534 | 70 | 192 | 6.0 | 9.0 | 0.00 | 0.00 | 0.00 | 1 | 1015.1 |
| 20260506150029 | 69 | 190 | 4.0 | 7.0 | 0.00 | 0.00 | 0.00 | 1 | 1014.8 |
| 20260506144517 | 68 | 192 | 4.0 | 7.0 | 0.00 | 0.00 | 0.00 | 1 | 1014.7 |
| 20260506143034 | 68 | 198 | 4.0 | 8.0 | 0.00 | 0.00 | 0.00 | 1 | 1014.4 |
| 20260506141510 | 67 | 234 | 3.0 | 8.0 | 0.00 | 0.00 | 0.00 | 1 | 1014.6 |
| 20260506140007 | 66 | 203 | 3.0 | 7.0 | 0.00 | 0.00 | 0.00 | 1 | 1014.7 |
| 20260506134559 | 66 | 213 | 2.0 | 5.0 | 0.00 | 0.00 | 0.00 | 1 | 1014.7 |
| 20260506133056 | 65 | 220 | 1.0 | 5.0 | 0.00 | 0.00 | 0.00 | 1 | 1014.9 |
| 20260506131554 | 64 | 215 | 5.0 | 8.0 | 0.00 | 0.00 | 0.00 | 1 | 1014.7 |
| 20260506130058 | 63 | 215 | 0.0 | 4.0 | 0.00 | 0.00 | 0.00 | 1 | 1014.7 |
| 20260506124542 | 61 | 196 | 0.0 | 0.0 | 0.00 | 0.00 | 0.00 | 1 | 1014.5 |
| 20260506123038 | 60 | 200 | 0.0 | 0.0 | 0.00 | 0.00 | 0.00 | 1 | 1014.4 |
| 20260506121533 | 59 | 200 | 0.0 | 1.0 | 0.00 | 0.00 | 0.00 | 1 | 1014.4 |
| 20260506120031 | 59 | 200 | 0.0 | 0.0 | 0.00 | 0.00 | 0.00 | 1 | 1014.4 |
| 20260506114537 | 58 | 201 | 0.0 | 0.0 | 0.00 | 0.00 | 0.00 | 1 | 1014.3 |
| 20260506113020 | 58 | 203 | 0.0 | 0.0 | 0.00 | 0.00 | 0.00 | 1 | 1014.2 |
| 20260506111515 | 0 | 203 | 0.0 | 0.0 | 0.00 | 0.00 | 0.00 | 1013.8 | |
| 20260506110011 | 0 | 203 | 0.0 | 0.0 | 0.00 | 0.00 | 0.00 | 1013.3 | |
| 20260506104506 | 0 | 160 | 0.0 | 0.0 | 0.00 | 0.00 | 0.00 | 1012.8 | |
| 20260506103003 | 0 | 160 | 0.0 | 0.0 | 0.00 | 0.00 | 0.00 | 1012.9 | |
| 20260506101603 | 0 | 160 | 0.0 | 0.0 | 0.00 | 0.00 | 0.00 | 1013.1 | |
| 20260506100053 | 0 | 160 | 0.0 | 0.0 | 0.00 | 0.00 | 0.00 | 1012.7 | |
| 20260506094555 | 0 | 160 | 0.0 | 0.0 | 0.00 | 0.00 | 0.00 | 1013.0 | |
| 20260506093047 | 0 | 160 | 0.0 | 0.0 | 0.00 | 0.00 | 0.00 | 1013.0 | |
| 20260506091540 | 0 | 161 | 0.0 | 0.0 | 0.00 | 0.00 | 0.00 | 1013.0 | |
| 20260506090037 | 0 | 161 | 0.0 | 0.0 | 0.00 | 0.00 | 0.00 | 1013.4 | |
| 20260506084532 | 0 | 161 | 0.0 | 0.0 | 0.00 | 0.00 | 0.00 | 1013.5 | |
| 20260506083027 | 0 | 161 | 0.0 | 0.0 | 0.00 | 0.00 | 0.00 | 1013.5 | |
| 20260506081522 | 0 | 161 | 0.0 | 0.0 | 0.00 | 0.00 | 0.00 | 1013.4 | |
| 20260506073008 | 0 | 161 | 0.0 | 0.0 | 0.00 | 0.00 | 0.00 | 1013.6 | |
| 20260506071503 | 0 | 161 | 0.0 | 0.0 | 0.00 | 0.00 | 0.00 | 1013.8 | |
| 20260506070104 | 0 | 161 | 0.0 | 0.0 | 0.00 | 0.00 | 0.00 | 1013.7 | |
| 20260506061546 | 0 | 176 | 3.0 | 7.0 | 0.00 | 0.00 | 0.00 | 1013.4 | |
| 20260506044530 | 0 | 190 | 5.0 | 11.0 | 0.00 | 0.00 | 0.00 | 1014.0 | |
| 20260506043027 | 0 | 165 | 4.0 | 10.0 | 0.00 | 0.00 | 0.00 | 1014.0 | |
| 20260506041528 | 0 | 172 | 5.0 | 14.0 | 0.00 | 0.00 | 0.00 | 1013.9 | |
| 20260506040017 | 0 | 169 | 5.0 | 14.0 | 0.00 | 0.00 | 0.00 | 1013.9 | |
| 20260506034513 | 0 | 161 | 6.0 | 12.0 | 0.00 | 0.00 | 0.00 | 1013.9 | |
| 20260506033007 | 0 | 160 | 5.0 | 12.0 | 0.00 | 0.00 | 0.00 | 1013.9 | |
| 20260506031503 | 0 | 171 | 5.0 | 11.0 | 0.00 | 0.00 | 0.00 | 1013.8 | |
| 20260506030059 | 0 | 179 | 5.0 | 12.0 | 0.00 | 0.00 | 0.00 | 1013.9 | |
| 20260506024559 | 0 | 144 | 5.0 | 10.0 | 0.00 | 0.00 | 0.00 | 1013.7 | |
| 20260506023101 | 0 | 190 | 0.0 | 0.0 | 0.00 | 0.00 | 0.00 | 1013.3 | |
| 20260506021559 | 0 | 190 | 0.0 | 0.0 | 0.00 | 0.00 | 0.00 | 1013.2 | |
| 20260506020057 | 0 | 190 | 0.0 | 0.0 | 0.00 | 0.00 | 0.00 | 1013.0 | |
| 20260506014559 | 0 | 190 | 0.0 | 0.0 | 0.00 | 0.00 | 0.00 | 1013.2 | |
| 20260506013056 | 0 | 190 | 0.0 | 0.0 | 0.00 | 0.00 | 0.00 | 1013.4 | |
| 20260506011554 | 0 | 190 | 0.0 | 0.0 | 0.00 | 0.00 | 0.00 | 1013.3 | |
| 20260506010050 | 0 | 190 | 0.0 | 0.0 | 0.00 | 0.00 | 0.00 | 1013.3 | |
| 20260506004546 | 0 | 190 | 0.0 | 0.0 | 0.00 | 0.00 | 0.00 | 1013.2 | |
| 20260506003040 | 0 | 190 | 0.0 | 0.0 | 0.00 | 0.00 | 0.00 | 1012.9 | |
| 20260506001547 | 0 | 190 | 0.0 | 2.0 | 0.00 | 0.00 | 0.00 | 1012.8 | |
| 20260506000040 | 0 | 190 | 2.0 | 5.0 | 0.00 | 0.00 | 0.00 | 1012.5 | |
| 20260505234527 | 0 | 192 | 3.0 | 8.0 | 0.00 | 0.00 | 0.00 | 1012.3 | |
| 20260505233022 | 0 | 188 | 4.0 | 9.0 | 0.00 | 0.00 | 0.00 | 1012.5 | |
| 20260505231518 | 0 | 190 | 4.0 | 11.0 | 0.00 | 0.00 | 0.00 | 1012.7 | |
| 20260505230016 | 0 | 200 | 4.0 | 13.0 | 0.00 | 0.00 | 0.00 | 1012.5 | |
| 20260505224508 | 0 | 182 | 5.0 | 10.0 | 0.00 | 0.00 | 0.00 | 1012.7 | |
| 20260505223007 | 0 | 174 | 5.0 | 12.0 | 0.00 | 0.00 | 0.00 | 1012.6 | |
| 20260505221504 | 0 | 205 | 4.0 | 14.0 | 0.00 | 0.00 | 0.00 | 1012.7 | |
| 20260505220101 | 0 | 154 | 7.0 | 12.0 | 0.00 | 0.00 | 0.00 | 1012.6 | |
| 20260505214607 | 0 | 204 | 5.0 | 12.0 | 0.00 | 0.00 | 0.00 | 1012.7 | |
| 20260505213059 | 0 | 198 | 6.0 | 12.0 | 0.00 | 0.00 | 0.00 | 1013.0 | |
| 20260505211548 | 0 | 207 | 3.0 | 10.0 | 0.00 | 0.00 | 0.00 | 1012.9 | |
| 20260505210046 | 0 | 146 | 7.0 | 13.0 | 0.00 | 0.00 | 0.00 | 1013.0 | |
| 20260505204539 | 0 | 195 | 5.0 | 13.0 | 0.00 | 0.00 | 0.00 | 1013.1 | |
| 20260505203043 | 81 | 183 | 6.0 | 11.0 | 0.00 | 0.00 | 0.00 | 40 | 1013.2 |
| 20260505201544 | 81 | 209 | 3.0 | 8.0 | 0.00 | 0.00 | 0.00 | 40 | 1013.3 |
| 20260505200029 | 82 | 223 | 4.0 | 14.0 | 0.00 | 0.00 | 0.00 | 38 | 1013.6 |
| 20260505194512 | 81 | 161 | 8.0 | 14.0 | 0.00 | 0.00 | 0.00 | 40 | 1014.0 |
| 20260505193027 | 80 | 150 | 6.0 | 10.0 | 0.00 | 0.00 | 0.00 | 41 | 1014.1 |
| 20260505191503 | 81 | 146 | 7.0 | 12.0 | 0.00 | 0.00 | 0.00 | 41 | 1014.3 |
| 20260505190116 | 81 | 190 | 6.0 | 11.0 | 0.00 | 0.00 | 0.00 | 41 | 1014.5 |
| 20260505184605 | 80 | 167 | 4.0 | 10.0 | 0.00 | 0.00 | 0.00 | 43 | 1014.6 |
| 20260505183053 | 81 | 193 | 6.0 | 9.0 | 0.00 | 0.00 | 0.00 | 42 | 1014.8 |
| 20260505181546 | 80 | 202 | 4.0 | 10.0 | 0.00 | 0.00 | 0.00 | 47 | 1015.3 |
| 20260505180042 | 79 | 252 | 6.0 | 13.0 | 0.00 | 0.00 | 0.00 | 42 | 1015.6 |
| 20260505174539 | 78 | 191 | 9.0 | 20.0 | 0.00 | 0.00 | 0.00 | 44 | 1015.6 |
| 20260505173037 | 79 | 146 | 9.0 | 12.0 | 0.00 | 0.00 | 0.00 | 44 | 1015.6 |